POPSAT HIP 1

导读

POPSAT‑HIP 1是新加坡(SG)于2014年6月19日发射的小型技术试验卫星,作为新加坡太空产业早期发展阶段的技术验证项目,它依托当地空间技术领域积累开展相关技术测试任务。该卫星的发射推动了新加坡后续微小卫星技术的迭代,也为东南亚地区商业航天发展积累了实践经验,是新加坡布局空间技术领域的重要尝试。

基本信息
目录编号:
40028
目录名称:
POPSAT HIP 1
国际标识:
2014-033U
轨道中心:
EARTH
卫星名称:
POPSAT HIP 1
卫星全名:
--
卫星状态:
在轨 (已飞行4379 天)
发射日期:
2014-06-19 UTC
国别 :
新加坡 (SG)
星等 :
--
轨道信息
数据来源 国际轨道数据
星历时间: 2026-06-15T05:33:35+0800
6小时前
查看轨道信息
半长轴: 6898.475km
偏心率: 0.00065
轨道倾角: 98.098°
近地点辐角 187.524°
升交点赤经 176.627°
平近点角 172.590°
近地点: 515.853km
远地点: 524.823km
周期: 95.036分钟
每日圈数: 15.152112
详细信息
使用方式:
暂无
2D轨道图
3D轨道图
轨道高度分析图
轨道倾角分析图
轨道综合分析图
查看轨道综合分析图